Home   Weather   Iași   Past weeks

Flag for Romania Past Weather in Iași, Romania — Yesterday and Last 2 Weeks

Now
39 °F

Clear.


Feels Like: 34 °F
Forecast: 35 / 52 °F
Wind: 8 mph from Northwest

Location: Iasi Airport

Current Time: Apr 24, 2017 at 2:39:03 am

Latest Report: Apr 24, 2017 at 2:00 am


Visibility: 10 mi

Pressure: 30.01 "Hg

Humidity: 70%

Dew Point: 30 °F

Location of IașiLocation

Past Weather in Iași — Graph

°F

Iași Temperature Yesterday

Maximum temperature yesterday: 50 °F (at 7:00 pm)
Minimum temperature yesterday: 39 °F (at 11:00 pm)
Average temperature yesterday: 44 °F

High & Low Weather Summary for the Past Weeks

 TemperatureHumidityPressure
High70 °F (Apr 11, 4:00 pm)93% (Apr 20, 8:30 am)30.27 "Hg (Apr 20, 8:30 am)
Low32 °F (Apr 20, 8:30 am)24% (Apr 18, 3:30 pm)29.68 "Hg (Apr 13, 6:00 pm)
Average47 °F57%29.98 "Hg
* Reported Apr 9 1:00 am — Apr 24 1:30 am, Iași, Weather by CustomWeather, © 2017

Note: Actual official high and low records may vary slightly from our data, if they occured in-between our weather recording intervals... More about our weather records

Advertising

Iași Weather History for the Previous 24 Hours

Scroll right to see more
 ConditionsComfort  
Time TempWeatherWind HumidityBarometerVisibility
1:30 am
Mon, Apr 24
39 °FPassing clouds.6 mph70%30.01 "HgN/A
1:00 am39 °FClear.7 mph70%30.01 "Hg10 mi
12:30 am39 °FClear.9 mph75%29.98 "Hg10 mi
11:30 pm
Sun, Apr 23
39 °FPassing clouds.5 mph75%29.98 "HgN/A
11:00 pm39 °FPassing clouds.9 mph75%29.98 "HgN/A
10:30 pm41 °FClear.9 mph70%29.98 "Hg10 mi
10:00 pm41 °FClear.9 mph70%29.95 "Hg10 mi
9:30 pm41 °FPassing clouds.7 mph70%29.95 "HgN/A
9:00 pm45 °FPassing clouds.13 mph57%29.95 "HgN/A
8:30 pm46 °FPassing clouds.6 mph57%29.92 "HgN/A
8:00 pm46 °FPassing clouds.3 mph57%29.89 "HgN/A
7:30 pm46 °FPassing clouds.5 mph53%29.89 "HgN/A
7:00 pm50 °FPassing clouds.10 mph40%29.89 "HgN/A
6:30 pm48 °FPassing clouds.6 mph50%29.86 "HgN/A
6:00 pm48 °FPassing clouds.12 mph50%29.86 "HgN/A
5:30 pm48 °FPassing clouds.12 mph50%29.86 "HgN/A
5:00 pm48 °FPassing clouds.10 mph58%29.89 "HgN/A
4:00 pm45 °FLight rain. Broken clouds.15 mph66%29.89 "HgN/A
3:30 pm48 °FScattered clouds.9 mph58%29.86 "HgN/A
3:00 pm48 °FScattered clouds.8 mph58%29.86 "HgN/A
2:30 pm46 °FPassing clouds.7 mph62%29.89 "HgN/A
2:00 pm45 °FBroken clouds.8 mph71%29.89 "HgN/A
1:30 pm43 °FLight rain. Broken clouds.10 mph71%29.89 "HgN/A
1:00 pm43 °FLight rain. Broken clouds.9 mph76%29.89 "HgN/A
12:30 pm41 °FLight rain. Broken clouds.14 mph76%29.89 "HgN/A
12:00 pm41 °FLight rain. Broken clouds.13 mph76%29.89 "HgN/A
11:30 am43 °FLight rain. Cloudy.10 mph76%29.89 "HgN/A
10:30 am41 °FLight rain. Partly sunny.14 mph81%29.86 "HgN/A
10:00 am43 °FSunny.14 mph71%29.86 "Hg10 mi
9:30 am43 °FMore clouds than sun.14 mph76%29.86 "HgN/A
9:00 am43 °FMore clouds than sun.13 mph81%29.86 "HgN/A
8:30 am43 °FLight rain. Overcast.9 mph81%29.86 "HgN/A
8:00 am43 °FLight rain. Overcast.8 mph81%29.83 "HgN/A
7:30 am43 °FOvercast.8 mph81%29.83 "HgN/A
7:00 am43 °FScattered clouds.2 mph81%29.80 "HgN/A
6:30 am43 °FPartly sunny.5 mph81%29.83 "HgN/A
5:30 am43 °FOvercast.2 mph81%29.83 "HgN/A
5:00 am43 °FPassing clouds.1 mph81%29.83 "HgN/A
4:30 am45 °FOvercast.1 mph81%29.83 "HgN/A
4:00 am43 °FOvercast.3 mph81%29.83 "HgN/A
3:30 am43 °FOvercast.3 mph81%29.83 "HgN/A
2:30 am43 °FLight rain. Passing clouds.1 mph81%29.86 "HgN/A
Weather by CustomWeather, © 2017

See weather overviewHow to use our weather pages